This is the latest recevied weather packets stored in our database for station/object K0NV. If no packets are shown the sender has not sent any weather packets the latest 10 day(s).
| Time | Temp. | Humidity | Pressure | Rain* | Wind** | Luminosity | Snow |
|---|---|---|---|---|---|---|---|
| 1777762671 | 18.33° C | 44% | 1020.5 hPa | 0 mm | - | 250 W/m² | - |
| 1777762368 | 17.78° C | 44% | 1020.4 hPa | 0 mm | - | 252 W/m² | - |
| 1777762064 | 18.33° C | 43% | 1020.6 hPa | 0 mm | - | 265 W/m² | - |
| 1777761761 | 18.89° C | 43% | 1020.4 hPa | 0 mm | - | 259 W/m² | - |
| 1777761458 | 18.33° C | 43% | 1020.5 hPa | 0 mm | - | 276 W/m² | - |
| 1777761156 | 18.33° C | 43% | 1020.6 hPa | 0 mm | - | 330 W/m² | - |
| 1777760854 | 18.89° C | 41% | 1020.5 hPa | 0 mm | - | 343 W/m² | - |
| 1777760550 | 18.89° C | 42% | 1020.4 hPa | 0 mm | - | 336 W/m² | - |
| 1777760246 | 18.89° C | 44% | 1020.5 hPa | 0 mm | - | 368 W/m² | - |
| 1777759943 | 18.89° C | 44% | 1020.5 hPa | 0 mm | - | 400 W/m² | - |
| 1777759640 | 18.89° C | 42% | 1020.4 hPa | 0 mm | - | 414 W/m² | - |
| 1777759336 | 18.33° C | 43% | 1020.2 hPa | 0 mm | - | 432 W/m² | - |
| 1777759033 | 18.33° C | 44% | 1020.5 hPa | 0 mm | - | 458 W/m² | - |
| 1777758730 | 18.33° C | 44% | 1020.4 hPa | 0 mm | - | 484 W/m² | - |
| 1777758427 | 18.33° C | 44% | 1020.3 hPa | 0 mm | - | 507 W/m² | - |
| 1777758124 | 18.89° C | 42% | 1020.5 hPa | 0 mm | - | 525 W/m² | - |
| 1777757821 | 18.89° C | 43% | 1020.8 hPa | 0 mm | - | 547 W/m² | - |
| 1777757518 | 18.33° C | 41% | 1020.3 hPa | 0 mm | - | 532 W/m² | - |
| 1777757217 | 18.33° C | 44% | 1020.3 hPa | 0 mm | - | 544 W/m² | - |
| 1777756915 | 18.33° C | 40% | 1020.7 hPa | 0 mm | - | 488 W/m² | - |
| 1777756610 | 18.33° C | 42% | 1020.4 hPa | 0 mm | - | 556 W/m² | - |
| 1777756308 | 18.33° C | 42% | 1020.6 hPa | 0 mm | - | 582 W/m² | - |
| 1777756005 | 18.33° C | 43% | 1020.7 hPa | 0 mm | - | 139 W/m² | - |
| 1777755702 | 17.78° C | 43% | 1020.6 hPa | 0 mm | - | 627 W/m² | - |
| 1777755399 | 18.89° C | 44% | 1020.5 hPa | 0 mm | - | 626 W/m² | - |
* Rain latest hour (hover to see other rain measurements)
** Current wind speed in m/s (hover to see current wind gust speed)